Wind_Speed
12 12 12 12 12 12 12 12 12 13 13 13 14 14 13 13 14 14 14 14 14 14 15 15 14 14 14 14 14 15 15 16 16 16 16 17 17 18 18 19 20 20 19
13 13 13 13 13 13 13 13 14 14 14 15 15 15 14 14 14 15 15 14 14 14 15 15 15 15 16 15 16 16 17 18 17 17 18 18 19 20 21 21 21 20 20
14 14 14 14 15 14 14 15 15 16 16 16 15 15 15 15 14 14 14 15 15 15 15 15 16 16 17 17 18 18 19 19 19 18 19 19 20 21 21 21 22 22 22
15 15 15 15 15 15 16 17 17 17 16 16 16 16 16 16 15 15 15 15 16 16 16 16 17 17 18 18 19 20 20 20 20 21 21 21 22 23 23 23 23 23 22
17 17 16 16 16 17 17 18 18 17 17 17 17 17 17 16 16 17 17 18 18 18 17 18 18 19 19 20 20 21 21 22 22 22 22 22 23 24 24 24 24 24 24
19 18 18 18 18 18 19 19 19 19 19 19 19 19 18 18 18 19 20 20 20 20 20 20 20 20 21 21 22 22 23 23 23 24 24 24 25 25 25 26 26 26 26
19 19 19 19 18 19 19 19 19 20 20 20 20 20 20 20 21 21 22 22 22 23 23 22 22 22 22 22 23 23 24 24 25 25 25 25 26 26 27 27 26 26 26
20 20 20 20 20 21 21 20 21 21 21 22 22 22 22 22 22 23 23 24 24 25 25 25 24 24 24 24 25 25 25 26 26 27 27 27 27 27 27 27 27 27 26
22 22 21 21 22 22 21 21 22 22 22 22 23 23 23 23 23 24 25 26 26 26 27 26 25 25 25 26 26 26 26 27 28 28 28 28 29 29 29 28 28 28 27
23 23 23 22 22 22 22 23 23 23 23 23 23 23 23 24 24 26 26 27 27 27 27 27 27 26 26 27 28 28 28 28 28 28 29 29 30 30 30 30 30 30 29
24 24 24 24 24 24 24 24 25 24 24 24 24 24 25 25 25 26 27 27 27 27 28 28 28 28 29 29 29 29 29 30 29 30 30 30 31 31 31 31 31 31 31
26 26 26 26 26 26 26 26 26 26 26 25 26 26 26 26 27 27 27 28 28 28 28 29 29 30 31 31 31 31 31 31 31 30 31 31 31 31 31 31 31 31 31
27 27 27 26 27 27 27 27 27 26 26 26 27 27 28 29 28 28 28 28 29 29 30 31 32 32 32 32 32 33 33 33 32 32 32 32 31 31 31 32 32 33 32
26 27 27 27 27 27 27 27 27 27 27 27 27 28 28 28 29 29 29 30 31 31 32 32 34 34 34 34 34 35 35 35 34 34 34 33 33 32 32 32 32 32 33
27 27 26 26 26 26 26 27 27 27 28 28 29 29 29 29 29 30 31 32 32 33 33 34 34 35 35 35 36 36 36 36 36 36 36 35 34 34 33 33 33 32 32
26 26 26 26 27 28 29 28 28 28 29 30 30 30 30 30 30 31 32 32 33 34 34 35 35 36 37 37 37 37 37 37 37 36 36 36 35 35 34 34 33 32 32
27 28 28 28 29 29 29 29 28 29 30 30 30 30 30 31 31 32 33 33 34 35 36 36 37 37 38 38 38 38 38 38 37 37 37 37 36 35 35 35 33 32 32
29 29 29 29 30 30 30 30 30 30 30 30 31 31 32 32 32 33 34 35 35 36 36 37 38 38 38 38 37 38 38 38 37 37 37 37 36 36 36 35 34 33 32
30 30 31 31 31 31 31 31 32 32 31 31 32 32 33 33 34 35 35 36 36 36 36 37 38 38 37 37 37 37 37 37 38 38 37 36 36 36 36 35 35 34 33
31 31 31 31 31 32 32 31 31 32 32 32 32 32 33 33 34 35 35 36 36 37 37 38 38 37 37 37 37 37 36 36 36 36 36 36 36 35 34 34 34 34 33
32 32 32 32 32 32 32 32 32 32 32 32 32 32 33 34 35 36 36 37 37 37 37 36 36 35 35 36 36 36 35 34 35 35 35 34 33 32 32 32 32 32 32
31 32 32 32 32 33 33 33 33 33 33 34 34 35 35 36 36 36 36 36 37 36 36 36 36 35 35 35 35 35 34 34 34 34 33 33 33 32 31 32 32 33 33
31 32 32 32 33 33 34 35 35 35 35 35 36 36 37 37 37 36 37 37 37 36 36 35 35 34 34 35 35 35 34 34 33 33 33 33 32 32 32 32 32 32 31
31 32 32 32 33 34 35 35 35 36 36 36 36 37 37 37 37 37 37 37 37 37 37 37 36 35 35 35 35 35 35 35 34 34 34 34 33 32 30 30 29 29 29
31 32 32 33 34 35 35 35 35 36 36 37 37 37 38 38 38 37 37 37 37 37 37 37 37 36 35 35 35 34 34 34 34 34 33 33 32 31 31 30 30 30 30
32 32 32 33 34 35 35 36 36 36 37 37 37 37 37 37 37 36 36 37 37 37 37 37 37 36 35 35 35 35 35 34 33 33 33 33 31 31 31 30 30 30 29
Wind_Direction
296 296 300 304 304 307 309 310 310 311 313 313 314 312 311 311 311 311 311 309 307 307 308 310 309 308 308 306 304 304 305 304 303 302 300 299 298 298 298 297 296 294 294
294 292 293 295 296 299 300 302 305 306 307 309 310 311 309 309 309 309 309 307 306 307 308 309 307 306 305 305 304 304 305 304 302 301 301 299 299 298 298 297 296 296 297
292 290 289 290 291 294 294 297 300 302 304 306 308 306 306 307 308 309 307 305 306 307 306 306 306 305 303 302 300 300 301 302 302 300 300 299 298 298 297 298 298 297 296
288 287 288 288 289 291 292 294 295 297 298 301 302 303 305 305 304 304 302 303 304 304 304 304 304 304 303 301 300 300 301 301 301 300 299 298 298 297 297 297 297 298 296
285 284 286 285 284 287 290 293 294 294 296 297 298 298 300 300 299 299 299 301 304 302 302 303 303 301 300 300 300 300 300 299 299 298 298 298 298 297 298 297 296 295 294
284 283 283 284 283 285 288 290 291 292 293 294 295 296 296 296 296 298 298 298 301 303 303 304 304 303 301 301 301 300 299 300 299 297 296 297 297 296 297 297 297 295 293
283 281 280 283 284 284 285 287 289 290 291 290 290 292 293 294 294 294 295 296 299 301 301 301 301 302 302 301 301 301 301 301 300 298 298 298 298 297 297 296 295 294 293
281 281 280 280 283 284 285 287 289 290 291 292 292 291 291 293 293 294 295 296 297 299 299 301 300 300 300 299 299 299 299 299 299 300 299 298 298 297 296 295 295 295 294
278 278 279 279 280 282 284 286 286 288 290 291 291 293 293 293 293 295 295 296 296 296 297 298 298 297 297 298 298 297 297 298 299 298 298 297 297 296 295 294 293 293 294
277 277 277 278 279 280 282 283 284 286 287 289 291 292 293 294 294 295 296 297 297 297 296 296 296 297 297 297 298 297 297 298 298 298 297 296 296 295 294 293 291 291 291
276 275 274 275 276 277 280 282 283 284 285 287 288 290 291 292 292 293 295 296 297 297 297 296 296 297 297 297 297 298 297 297 298 297 297 297 296 294 292 291 291 290 289
275 274 273 274 274 276 278 281 282 283 284 284 286 288 289 289 289 291 294 296 297 297 297 296 295 295 295 296 297 296 296 296 297 296 296 297 297 295 292 291 290 290 290
275 275 274 275 275 276 278 281 282 284 285 285 286 287 288 288 289 291 293 294 296 296 296 296 297 297 296 296 295 294 295 296 295 295 295 296 296 295 293 291 290 291 291
273 276 276 275 276 276 277 278 280 283 286 287 288 288 289 290 291 292 292 292 294 295 295 295 297 297 296 296 297 295 295 295 295 295 295 295 295 295 293 293 292 291 291
273 274 274 276 279 280 279 278 279 282 284 286 288 290 291 292 293 294 294 294 295 295 294 295 296 296 295 295 295 295 294 294 295 295 295 296 295 294 293 292 292 291 291
274 275 277 278 280 280 280 281 281 283 284 285 287 289 290 291 292 294 294 295 295 296 296 297 297 297 296 294 294 294 295 293 293 293 293 293 293 293 295 294 291 289 290
276 277 278 279 281 281 281 281 283 284 285 286 288 289 290 291 292 294 294 294 295 295 296 297 297 297 296 295 293 292 293 293 292 292 291 291 291 291 291 292 291 290 289
275 277 278 279 280 281 282 282 283 284 285 286 287 289 290 291 292 293 293 294 295 296 296 297 298 298 297 295 293 293 293 292 292 292 291 290 290 289 289 290 289 289 288
275 275 276 277 279 280 280 282 284 285 286 287 288 289 290 291 291 293 294 295 296 297 297 298 298 297 296 295 295 294 293 293 292 292 292 291 291 289 288 287 287 286 286
275 276 276 277 279 280 281 282 282 284 285 287 288 290 291 292 294 295 296 297 298 299 299 299 298 297 295 295 295 295 294 294 295 294 292 290 289 289 288 287 287 286 286
277 277 277 278 279 280 280 280 281 283 284 286 288 289 291 292 294 296 297 298 299 300 300 298 297 296 296 297 296 295 294 294 295 295 293 291 290 289 289 289 288 288 287
277 277 277 277 278 278 278 279 281 283 284 286 288 290 292 293 294 295 297 298 299 299 298 296 295 295 295 296 297 296 296 294 293 293 292 290 289 288 287 287 287 288 288
278 277 277 278 279 279 279 280 281 282 283 285 288 290 292 294 295 296 297 297 297 297 297 297 297 296 295 295 295 296 296 295 292 291 290 289 290 290 289 288 289 289 287
280 280 280 280 280 281 281 281 281 283 284 285 288 290 292 294 295 295 296 296 296 295 296 296 296 296 295 295 294 293 294 293 291 290 290 289 288 289 288 287 289 290 289
281 281 282 283 283 283 282 281 282 285 286 286 288 289 291 292 293 295 295 295 294 294 294 295 295 295 295 295 294 293 292 291 290 290 290 288 287 288 287 287 287 287 287
283 283 284 284 284 285 284 284 284 286 286 287 289 290 291 292 293 294 294 293 293 293 294 294 295 295 295 294 293 292 291 290 289 288 288 288 287 287 288 287 287 286 285
Height
5889 5888 5888 5887 5886 5885 5884 5883 5882 5881 5880 5879 5877 5876 5875 5873 5872 5871 5870 5868 5867 5865 5864 5863 5861 5860 5859 5857 5856 5855 5854 5852 5851 5850 5849 5847 5845 5844 5843 5842 5840 5838 5836
5886 5885 5885 5884 5883 5883 5882 5881 5880 5879 5877 5876 5875 5874 5872 5871 5870 5868 5867 5865 5864 5863 5861 5860 5859 5857 5856 5854 5853 5851 5850 5848 5847 5846 5844 5843 5841 5839 5839 5837 5835 5833 5831
5883 5882 5882 5881 5881 5880 5879 5878 5877 5876 5874 5873 5872 5871 5869 5868 5867 5865 5864 5862 5861 5860 5858 5857 5855 5854 5852 5851 5849 5848 5846 5844 5842 5841 5840 5838 5836 5834 5833 5831 5829 5828 5826
5880 5879 5879 5878 5877 5876 5876 5875 5874 5872 5871 5870 5869 5867 5866 5865 5863 5862 5861 5859 5858 5856 5855 5853 5851 5850 5848 5846 5845 5843 5841 5840 5838 5836 5835 5833 5831 5829 5827 5826 5824 5822 5820
5875 5875 5875 5874 5873 5872 5872 5871 5869 5868 5867 5867 5865 5864 5863 5861 5860 5859 5857 5856 5854 5852 5851 5849 5847 5845 5844 5842 5840 5838 5837 5835 5833 5831 5829 5827 5825 5823 5821 5819 5817 5816 5814
5871 5871 5870 5870 5869 5868 5867 5866 5865 5864 5863 5862 5861 5860 5858 5857 5856 5854 5853 5851 5850 5848 5846 5844 5842 5841 5839 5837 5835 5833 5831 5829 5827 5825 5823 5821 5819 5817 5815 5813 5811 5809 5808
5866 5866 5865 5865 5864 5863 5862 5861 5860 5859 5858 5857 5856 5855 5854 5852 5851 5849 5848 5846 5845 5843 5841 5839 5838 5836 5834 5832 5829 5828 5825 5823 5821 5819 5817 5815 5813 5811 5808 5806 5804 5802 5800
5861 5861 5860 5860 5859 5858 5857 5856 5855 5854 5853 5852 5851 5850 5848 5847 5846 5844 5842 5841 5839 5838 5836 5834 5832 5830 5828 5826 5824 5822 5820 5817 5815 5813 5810 5808 5806 5803 5801 5799 5797 5795 5793
5856 5855 5854 5854 5853 5853 5852 5851 5850 5849 5848 5846 5845 5844 5843 5842 5840 5838 5836 5835 5833 5831 5830 5828 5826 5824 5822 5820 5818 5816 5814 5811 5808 5806 5803 5800 5798 5795 5793 5791 5789 5787 5786
5850 5849 5848 5848 5847 5847 5846 5845 5844 5843 5842 5841 5839 5838 5837 5835 5834 5832 5830 5828 5826 5825 5823 5821 5819 5817 5815 5813 5811 5809 5807 5804 5801 5799 5796 5793 5790 5787 5785 5783 5781 5779 5777
5843 5842 5842 5841 5841 5840 5840 5839 5838 5837 5835 5834 5833 5832 5830 5829 5827 5825 5823 5821 5819 5818 5816 5814 5812 5810 5808 5806 5803 5801 5799 5796 5793 5791 5788 5785 5782 5779 5777 5774 5772 5770 5768
5836 5835 5835 5834 5834 5833 5833 5832 5831 5830 5829 5827 5826 5825 5823 5821 5819 5818 5816 5814 5812 5810 5809 5807 5805 5802 5800 5797 5795 5793 5790 5787 5785 5782 5780 5777 5774 5771 5768 5766 5763 5761 5759
5828 5828 5827 5827 5826 5826 5825 5824 5823 5822 5821 5820 5819 5817 5815 5813 5812 5810 5808 5806 5804 5802 5800 5798 5796 5793 5791 5788 5786 5784 5781 5778 5775 5773 5770 5768 5765 5762 5759 5756 5754 5752 5750
5821 5820 5820 5819 5818 5817 5817 5816 5815 5814 5813 5812 5811 5809 5807 5805 5804 5802 5800 5798 5796 5794 5792 5790 5787 5784 5782 5779 5777 5774 5771 5769 5766 5763 5761 5758 5756 5753 5750 5748 5745 5743 5741
5813 5813 5812 5811 5810 5809 5809 5808 5807 5806 5805 5804 5803 5801 5799 5797 5795 5793 5791 5789 5787 5785 5782 5780 5778 5775 5772 5770 5767 5764 5761 5759 5756 5754 5751 5749 5746 5744 5741 5738 5736 5734 5732
5806 5805 5804 5804 5803 5802 5801 5799 5798 5798 5797 5795 5794 5792 5790 5788 5786 5784 5782 5780 5777 5775 5773 5770 5768 5765 5762 5760 5757 5754 5752 5749 5746 5744 5741 5739 5736 5733 5731 5728 5726 5724 5722
5798 5798 5797 5796 5795 5794 5793 5792 5791 5790 5788 5787 5785 5783 5782 5780 5778 5775 5773 5770 5767 5765 5762 5760 5757 5754 5751 5748 5746 5743 5741 5738 5735 5733 5730 5728 5725 5723 5720 5718 5716 5714 5712
5790 5790 5789 5788 5787 5786 5785 5783 5782 5781 5779 5778 5776 5775 5773 5771 5769 5766 5763 5761 5758 5755 5752 5749 5746 5743 5740 5737 5735 5732 5729 5727 5725 5722 5719 5716 5714 5712 5709 5707 5705 5703 5702
5781 5781 5780 5780 5779 5778 5776 5774 5773 5772 5770 5769 5767 5765 5763 5761 5759 5756 5753 5750 5748 5745 5742 5739 5735 5732 5729 5726 5723 5720 5718 5715 5713 5711 5708 5706 5703 5700 5698 5696 5694 5693 5691
5772 5772 5771 5771 5770 5768 5767 5766 5764 5763 5761 5759 5758 5756 5753 5751 5749 5746 5743 5740 5737 5734 5731 5728 5724 5721 5718 5715 5713 5710 5707 5704 5702 5699 5697 5694 5692 5689 5687 5686 5684 5682 5681
5763 5763 5762 5761 5760 5759 5758 5756 5755 5753 5752 5750 5748 5746 5744 5741 5739 5736 5733 5730 5727 5723 5720 5717 5714 5711 5708 5705 5702 5699 5696 5693 5691 5688 5686 5683 5681 5679 5677 5675 5673 5672 5670
5754 5753 5752 5752 5751 5750 5748 5747 5745 5744 5742 5740 5738 5736 5733 5731 5728 5726 5723 5720 5716 5713 5710 5706 5703 5700 5698 5695 5692 5689 5686 5683 5680 5678 5675 5673 5671 5669 5667 5665 5663 5662 5660
5744 5744 5743 5742 5741 5740 5739 5737 5735 5734 5732 5730 5727 5725 5722 5720 5717 5715 5712 5709 5706 5702 5699 5696 5693 5690 5687 5685 5682 5679 5676 5673 5670 5668 5665 5663 5661 5659 5657 5655 5653 5652 5650
5735 5734 5733 5732 5731 5729 5728 5727 5725 5723 5721 5719 5716 5714 5712 5709 5706 5704 5701 5698 5695 5692 5689 5686 5683 5680 5677 5674 5671 5669 5666 5663 5660 5657 5655 5653 5651 5649 5647 5645 5644 5642 5641
5725 5724 5723 5722 5720 5719 5717 5716 5714 5712 5710 5708 5705 5703 5700 5698 5695 5692 5690 5687 5683 5681 5678 5675 5672 5669 5666 5663 5660 5657 5655 5652 5649 5647 5645 5643 5641 5639 5637 5636 5634 5633 5632
5716 5714 5712 5711 5710 5708 5706 5705 5703 5701 5699 5696 5694 5692 5689 5686 5683 5680 5678 5675 5672 5669 5666 5663 5660 5657 5655 5652 5649 5646 5644 5641 5639 5637 5635 5633 5631 5629 5627 5626 5624 5623 5622